Weather History for CWGB - February, 2013

Change the Weather History Date:

Tuesday, February 19, 2013

  Actual Average Record
Temperature  
Mean Temperature 41 °F -  
Max Temperature 43 °F - - ()
Min Temperature 39 °F - - ()
Degree Days  
Heating Degree Days 24    
Moisture  
Dew Point 37 °F    
Average Humidity 82    
Maximum Humidity 91    
Minimum Humidity 71    
Precipitation  
Precipitation 0.02 in - - ()
Sea Level Pressure  
Sea Level Pressure 29.85 in    
Wind  
Wind Speed 11 mph ()    
Max Wind Speed 23 mph    
Max Gust Speed 29 mph    
T = Trace of Precipitation, MM = Missing Value Source: Averaged Metar Reports

Daily Weather History Graph

Daily Weather History Graph

Search for Another Location

Airport or City:

Trip Planner

Search our weather history database for the weather conditions in past years. The results will help you decide how hot, cold, wet, or windy it might be!

Date:

Astronomy

Feb. 19, 2013 Rise Set
Actual Time 7:17 AM PST 5:43 PM PST
Civil Twilight 6:45 AM PST 6:16 PM PST
Nautical Twilight 6:08 AM PST 6:53 PM PST
Astronomical Twilight 5:31 AM PST 7:30 PM PST
Moon 12:02 PM PST (2/19) 3:11 AM PST (2/19)
Length of Visible Light 11h 31m
Length of Day
10h 26m
Waxing Gibbous, 68% of the Moon is Illuminated
Feb 19
Waxing Gibbous
Feb 25
Full
Mar 4
Last Quarter
Mar 11
New
Mar 19
First Quarter

Hourly Weather History & Observations

Time (PST) Temp. Windchill Dew Point Humidity Pressure Visibility Wind Dir Wind Speed Gust Speed Precip Events Conditions
1:00 AM 43.3 °F 34.2 °F 36.1 °F 76% 29.73 in - ESE 23.0 mph 28.8 mph 0.01 in   Unknown
4:00 AM 42 °F - 36 °F 71% 29.76 in - East 3.5 mph - -  
4:00 AM 41.9 °F 40.0 °F 35.8 °F 79% 29.76 in - East 3.5 mph - 0.02 in   Unknown
5:00 AM 42.1 °F - 35.8 °F 78% 29.77 in - NNE 2.3 mph - N/A   Unknown
6:00 AM 40.3 °F 31.3 °F 37.8 °F 91% 29.79 in - WNW 18.4 mph - N/A   Unknown
7:00 AM 39.6 °F 30.0 °F 37.2 °F 91% 29.80 in - WNW 19.6 mph - N/A   Unknown
8:00 AM 40.1 °F 31.3 °F 37.4 °F 90% 29.82 in - West 17.3 mph - N/A   Unknown
9:00 AM 40.5 °F 32.1 °F 37.6 °F 89% 29.83 in - West 16.1 mph - N/A   Unknown
10:00 AM 41.0 °F 33.5 °F 37.8 °F 88% 29.83 in - West 13.8 mph - N/A   Unknown
11:00 AM 41.4 °F 34.0 °F 37.8 °F 87% 29.84 in - West 13.8 mph - N/A   Unknown
12:00 PM 41.5 °F 33.8 °F 37.0 °F 84% 29.86 in - West 15.0 mph - N/A   Unknown
1:00 PM 41.9 °F 34.0 °F 36.9 °F 82% 29.87 in - West 16.1 mph - N/A   Unknown
2:00 PM 43.0 °F 35.4 °F 37.9 °F 82% 29.86 in - WNW 16.1 mph - N/A   Unknown
3:00 PM 43.5 °F 36.7 °F 37.9 °F 81% 29.86 in - WNW 13.8 mph - N/A   Unknown
5:00 PM 43.9 °F 37.5 °F 37.9 °F 80% 29.87 in - West 12.7 mph - N/A   Unknown
6:00 PM 43.7 °F 37.7 °F 38.5 °F 82% 29.88 in - West 11.5 mph - N/A   Unknown
7:00 PM 42.3 °F 36.3 °F 38.1 °F 85% 29.89 in - WSW 10.4 mph - N/A   Unknown
8:00 PM 41.2 °F 35.0 °F 36.3 °F 83% 29.91 in - SW 10.4 mph - N/A   Unknown
9:00 PM 40.8 °F 34.1 °F 35.4 °F 81% 29.93 in - SW 11.5 mph - N/A   Unknown
10:00 PM 41 °F - 35 °F 72% 29.94 in - SW 11.5 mph - -  
10:00 PM 40.6 °F 33.8 °F 35.1 °F 80% 29.94 in - SW 11.5 mph - N/A   Unknown
11:00 PM 40.3 °F 34.9 °F 34.9 °F 81% 29.95 in - WSW 8.1 mph - N/A   Unknown